DateTimeUTC,F1_A11,F1_S11,BsB_S11,BsG_S11,BsR_S11,BbsB_S11,BbsG_S11,BbsR_S11,BaB_A11,BaG_A11,BaR_A11,Tu_S11,T_S11,Uu_S11,U_S11,P_S11,T1_A11
2021-04-08T08:00:00Z,00000200,21000000,,,,,,,0000.23,0000.32,0000.44,16.2,23.4,,00.0,0659.1,31.1
2021-04-08T08:01:00Z,00000200,21000000,,,,,,,0000.36,-000.06,0000.55,16.2,23.4,,00.0,0659.1,31.1
2021-04-08T08:02:00Z,00000200,21000000,,,,,,,0000.31,0000.52,0000.21,16.2,23.4,,00.0,0659.1,31.1
2021-04-08T08:03:00Z,00000200,61000000,,,,,,,0000.83,0001.06,0000.72,16.2,23.5,,00.0,0659.1,31.1
2021-04-08T08:04:00Z,00000200,41000000,0002.74,0001.79,0000.87,0000.78,0000.20,0000.07,0001.33,0001.15,0000.45,16.6,23.4,,00.0,0660.0,31.1
2021-04-08T08:05:00Z,00000200,01000000,0002.30,0001.81,0000.82,0000.67,0000.25,0000.23,0000.49,0000.97,0000.24,16.6,23.3,,00.0,0660.1,31.1
2021-04-08T08:06:00Z,00000200,01000000,0002.17,0001.61,0000.70,0000.11,0000.18,0000.04,0000.71,0000.50,0000.49,16.5,23.3,,00.0,0660.1,31.1
2021-04-08T08:07:00Z,00000200,01000000,0002.40,0001.65,0000.63,0000.62,0000.23,0000.22,0000.92,0001.08,0000.59,16.5,23.3,,00.0,0660.1,31.2
2021-04-08T08:08:00Z,00000200,01000000,0002.50,0001.66,0000.48,0000.42,0000.26,0000.23,0001.24,0000.90,0000.73,16.4,23.3,,00.0,0660.1,31.2
2021-04-08T08:09:00Z,00000200,01000000,0001.73,0001.51,0000.71,0000.58,0000.22,0000.17,0000.26,0000.24,0000.60,16.3,23.2,,00.0,0660.1,31.2
2021-04-08T08:10:00Z,00000200,01000000,0002.50,0001.38,0000.70,0000.27,0000.12,0000.10,0000.54,0000.17,-000.01,16.3,23.2,,00.0,0660.1,31.2
2021-04-08T08:11:00Z,00000200,01000000,0002.16,0001.43,0000.64,0000.13,0000.31,0000.46,0000.22,0000.14,0000.29,16.2,23.2,,00.0,0660.1,31.2
2021-04-08T08:12:00Z,00000200,01000000,0001.61,0001.45,0000.67,-000.31,0000.13,0000.22,0000.74,0000.34,0000.20,16.2,23.2,,00.0,0660.1,31.2
2021-04-08T08:13:00Z,00000200,01000000,0002.36,0001.61,0000.79,0000.61,0000.47,0000.11,0000.42,0000.35,-000.01,16.3,23.2,,00.0,0660.1,31.2
2021-04-08T08:14:00Z,00000200,01000000,0001.77,0001.22,0000.50,0000.12,0000.19,-000.02,0000.39,0000.75,0000.62,16.3,23.2,,00.0,0660.1,31.2
2021-04-08T08:15:00Z,00000200,01000000,0002.44,0001.59,0000.62,0000.13,0000.34,0000.06,0000.72,0000.56,0000.49,16.4,23.2,,00.0,0660.1,31.2
2021-04-08T08:16:00Z,00000200,01000000,0001.75,0001.55,0000.74,0000.18,-000.13,0000.31,0000.41,-000.08,0000.33,16.5,23.3,,00.0,0660.1,31.2
2021-04-08T08:17:00Z,00000200,01000000,0002.37,0001.31,0000.51,-000.03,0000.29,0000.17,0000.71,0000.88,0000.59,16.5,23.3,,00.0,0660.1,31.2
2021-04-08T08:18:00Z,00000200,01000000,0002.46,0001.64,0000.67,0000.00,0000.24,0000.27,0000.44,0000.60,0000.34,16.5,23.3,,00.0,0660.1,31.2
2021-04-08T08:19:00Z,00000200,01000000,0001.84,0001.37,0000.48,0000.47,0000.05,0000.04,0000.98,0000.80,0000.75,16.5,23.3,,00.0,0660.1,31.1
2021-04-08T08:20:00Z,00000200,01000000,0001.89,0001.38,0000.49,0000.18,0000.08,0000.25,0001.05,0000.46,0000.56,16.5,23.3,,00.0,0660.1,31.1
2021-04-08T08:21:00Z,00000200,01000000,0001.68,0001.13,0000.57,0000.16,-000.21,0000.26,0000.68,0000.93,0000.54,16.4,23.3,,00.0,0660.1,31.1
2021-04-08T08:22:00Z,00000200,01000000,0001.36,0000.91,0000.60,-000.32,0000.28,0000.14,0000.71,0000.47,0000.05,16.4,23.3,,00.0,0660.1,31.1
2021-04-08T08:23:00Z,00000200,01000000,0001.46,0001.08,0000.40,0000.42,0000.09,0000.23,0000.78,0000.44,0000.32,16.3,23.3,,00.0,0660.1,31.0
2021-04-08T08:24:00Z,00000200,01000000,0001.56,0001.22,0000.56,0000.10,-000.05,-000.04,0000.21,0000.77,0000.56,16.3,23.3,,00.0,0660.1,31.0
2021-04-08T08:25:00Z,00000200,01000000,0001.87,0001.30,0000.40,0000.09,0000.28,0000.12,0001.01,0000.30,0000.61,16.2,23.2,,00.0,0660.1,31.0
2021-04-08T08:26:00Z,00000200,01000000,0001.21,0000.94,0000.39,0000.36,0000.29,0000.02,0000.39,0000.56,0000.20,16.2,23.2,,00.0,0660.1,31.0
2021-04-08T08:27:00Z,00000200,01000000,0000.81,0001.12,0000.38,-000.03,0000.36,0000.14,0000.96,0000.40,0000.72,16.2,23.2,,00.0,0660.1,30.9
2021-04-08T08:28:00Z,00000200,01000000,0001.75,0001.48,0000.44,0000.05,0000.21,0000.13,0000.66,0000.75,0000.53,16.2,23.2,,00.0,0660.1,31.0
2021-04-08T08:29:00Z,00000200,01000000,0001.68,0001.53,0000.73,0000.44,0000.25,-000.04,0001.18,0001.19,0000.62,16.3,23.2,,00.0,0660.1,31.0
2021-04-08T08:30:00Z,00000200,01000000,0002.49,0001.42,0000.67,-000.23,0000.38,0000.23,0000.69,0000.78,0000.22,16.4,23.2,,00.0,0660.1,31.0
2021-04-08T08:31:00Z,00000200,01000000,0002.17,0001.87,0000.86,0000.47,0000.40,0000.07,0000.74,0000.85,0000.83,16.4,23.3,,00.0,0660.1,31.0
2021-04-08T08:32:00Z,00000200,01000000,0002.16,0001.64,0000.98,0000.19,0000.22,0000.28,0000.80,0000.38,0000.50,16.4,23.3,,00.0,0660.0,31.0
2021-04-08T08:33:00Z,00000200,01000000,0003.24,0001.97,0000.87,0000.80,0000.08,0000.03,0000.80,0000.83,0000.71,16.4,23.3,,00.0,0660.0,31.0
2021-04-08T08:34:00Z,00000200,01000000,0002.71,0002.30,0000.88,0000.51,0000.33,0000.31,0000.86,0001.06,0000.39,16.4,23.3,,00.0,0660.0,31.0
2021-04-08T08:35:00Z,00000200,01000000,0002.65,0002.01,0000.89,0000.17,0000.32,0000.35,0001.38,0000.89,0000.98,16.3,23.3,,00.0,0660.0,31.0
2021-04-08T08:36:00Z,00000200,01000000,0002.61,0001.74,0000.96,0000.50,0000.08,0000.44,0000.72,0001.19,0000.53,16.3,23.3,,00.0,0660.0,31.0
2021-04-08T08:37:00Z,00000200,01000000,0002.50,0002.10,0000.93,0000.17,0000.43,0000.25,0001.37,0000.74,0000.71,16.3,23.2,,00.0,0660.0,30.9
2021-04-08T08:38:00Z,00000200,01000000,0002.97,0001.87,0000.82,0000.73,0000.50,0000.22,0000.68,0000.65,0000.27,16.2,23.2,,00.0,0660.0,30.9
2021-04-08T08:39:00Z,00000200,01000000,0002.89,0002.03,0000.78,0000.13,-000.09,0000.25,0001.26,0000.76,0000.83,16.2,23.2,,00.0,0660.0,30.9
2021-04-08T08:40:00Z,00000200,01000000,0002.16,0001.47,0001.01,-000.26,0000.29,0000.08,0000.44,0000.34,0000.38,16.2,23.2,,00.0,0660.0,30.9
2021-04-08T08:41:00Z,00000200,01000000,0002.30,0001.79,0001.07,0000.46,0000.08,0000.37,0001.30,0001.20,0000.91,16.1,23.2,,00.0,0660.0,30.9
2021-04-08T08:42:00Z,00000200,01000000,0002.35,0001.78,0001.03,-000.04,0000.05,0000.10,0000.88,0001.09,0000.56,16.1,23.1,,00.0,0659.9,30.9
2021-04-08T08:43:00Z,00000200,01000000,0003.05,0001.72,0000.86,0000.31,0000.27,0000.06,0001.16,0001.57,0001.02,16.2,23.1,,00.0,0659.9,30.9
2021-04-08T08:44:00Z,00000200,01000000,0002.48,0001.70,0000.90,0000.24,0000.14,0000.15,0001.19,0000.66,0000.61,16.2,23.2,,00.0,0659.9,30.9
2021-04-08T08:45:00Z,00000200,01000000,0003.05,0002.24,0000.85,0000.36,0000.11,0000.41,0000.96,0001.02,0000.68,16.3,23.2,,00.0,0659.9,31.0
2021-04-08T08:46:00Z,00000200,01000000,0002.25,0001.98,0001.03,0000.41,0000.06,0000.06,0002.06,0001.64,0001.56,16.4,23.2,,00.0,0659.9,31.0
2021-04-08T08:47:00Z,00000200,01000000,0003.53,0002.03,0000.79,0000.34,0000.23,0000.08,-000.09,0000.13,-000.37,16.4,23.3,,00.0,0659.9,31.0
2021-04-08T08:48:00Z,00000200,01000000,0002.78,0001.89,0000.88,0000.62,0000.37,0000.10,0000.87,0000.85,0000.55,16.4,23.3,,00.0,0659.9,31.0
2021-04-08T08:49:00Z,00000200,01000000,0002.55,0001.72,0000.82,0000.37,0000.35,0000.35,0002.00,0001.48,0001.27,16.4,23.3,,00.0,0659.9,31.0
2021-04-08T08:50:00Z,00000200,01000000,0002.16,0001.87,0000.55,-000.11,0000.35,0000.02,0000.40,0000.21,0000.20,16.3,23.3,,00.0,0659.9,31.0
2021-04-08T08:51:00Z,00000200,01000000,0002.80,0002.07,0000.78,0000.77,0000.17,0000.20,0000.63,0000.74,0000.65,16.3,23.3,,00.0,0659.9,31.0
2021-04-08T08:52:00Z,00000200,01000000,0002.73,0001.65,0000.56,0000.21,0000.27,0000.22,0000.83,0000.30,0000.38,16.3,23.2,,00.0,0659.9,31.0
2021-04-08T08:53:00Z,00000200,01000000,0002.23,0001.23,0000.72,0000.62,0000.20,0000.10,0000.44,0001.11,0000.53,16.2,23.2,,00.0,0659.9,31.0
2021-04-08T08:54:00Z,00000200,01000000,0001.52,0001.61,0000.75,0000.78,0000.14,0000.36,0000.84,0000.84,0000.49,16.2,23.2,,00.0,0659.8,30.9
2021-04-08T08:55:00Z,00000200,01000000,0002.00,0001.25,0000.22,-000.17,0000.16,0000.11,0000.73,0000.34,0000.30,16.2,23.2,,00.0,0659.8,30.9
2021-04-08T08:56:00Z,00000200,01000000,0002.40,0001.35,0000.73,0000.04,0000.21,0000.20,0001.28,0001.19,0000.98,16.2,23.2,,00.0,0659.8,30.9
2021-04-08T08:57:00Z,00000200,41000000,,,,,,,-000.98,-000.90,-000.28,16.2,23.2,,00.0,0660.0,30.9
2021-04-08T08:58:00Z,00000200,61000000,,,,,,,0000.93,0000.81,0000.05,15.9,23.3,,00.0,0658.9,30.9
2021-04-08T08:59:00Z,00000200,21000000,,,,,,,0001.88,0001.76,0001.32,15.9,23.4,,00.0,0658.9,30.9
